Regional Weather Roundup
Issued by NWS

Home | Current Version | Previous Version | Text Only | Print | Product List | Glossary Off
Versions: 1 2 3 4 5 6 7 8 9 10 11 12 13 14 15 16 17 18 19 20 21 22 23 24 25 26 27 28 29 30 31 32 33 34 35 36 37 38 39 40 41 42 43 44 45 46 47 48 49 50

000
ASUS43 KLOT 271706
RWRIL

ILLINOIS REGIONAL WEATHER ROUNDUP
NATIONAL WEATHER SERVICE CHICAGO/ROMEOVILLE IL
1100 AM CST SAT DEC 27 2014

NOTE: "FAIR" INDICATES FEW OR NO CLOUDS BELOW 12,000 FEET WITH NO
SIGNIFICANT WEATHER AND/OR OBSTRUCTIONS TO VISIBILITY.

* THESE STATIONS ARE NOT UNDER NWS QUALITY CONTROL. THEY ALSO MAY NOT
  REPORT WEATHER SUCH AS PRECIPITATION OR FOG.

ILZ001-002-007-009-015-016-024-271800-
NORTHWEST ILLINOIS

CITY           SKY/WX    TMP DP  RH WIND       PRES   REMARKS
MOLINE         CLOUDY    36  28  73 W17       30.07R WCI  26
STERLING*      CLOUDY    37  30  75 W22G30    30.05R WCI  27
SAVANNA*       CLOUDY    36  30  77 W8G20     30.04S WCI  30
$$

ILZ003-004-008-010-011-017-018-271800-
NORTH CENTRAL ILLINOIS

CITY           SKY/WX    TMP DP  RH WIND       PRES   REMARKS
ROCKFORD       CLOUDY    37  31  78 W16G26    30.01R WCI  28
FREEPORT*      CLOUDY    35  31  87 W17G29    30.03R WCI  24
ROCHELLE*      CLOUDY    36  32  85 W20       30.02F WCI  25
DE KALB*       CLOUDY    36  33  88 W31G37    30.03R WCI  22
PERU*          CLOUDY    40  33  78 W16G29    30.07R
$$

ILZ005-006-012>014-019>023-271800-
NORTHEAST ILLINOIS

CITY           SKY/WX    TMP DP  RH WIND       PRES   REMARKS
CHICAGO-OHARE  DRIZZLE   48  46  93 SW17G25   29.94F FOG
CHICAGO-MIDWAY DRIZZLE   50  47  89 SW17G25   29.96F
AURORA         CLOUDY    40  36  86 W24G35    30.02R
LANSING*       CLOUDY    48  47  96 SW17G24   29.99F FOG
JOLIET*        CLOUDY    45  43  91 W16G25    30.01R
WAUKEGAN       CLOUDY    49  44  83 SW20G31   29.91S
DUPAGE AIRPORT CLOUDY    41  37  86 W24G35    29.99R
KANKAKEE*      CLOUDY    48  47  96 SW18G24   30.05R FOG
WHEELING       CLOUDY    49  46  90 SW17G24   29.95F
MORRIS*        CLOUDY    42  40  93 W26G35    30.04R
ROMEOVILLE*    CLOUDY    45  43  93 W21G31    30.00R
NORTHERLY ISL    N/A     48  45  89 S15         N/A
$$

LMZ740>746-271800-
SOUTHERN LAKE MICHIGAN

STATION/POSITION SKY/WX   TEMP    WIND        PRES    VSBY  WAVE
                          AIR SEA DIR/SP/G                  HT/PER
                          (F)     (DEG/KT/KT) (MB)    (MI)  (FT/S)
WAUKEGAN HARBOR            49     230/ 26/ 27   N/A
HARRISON CRIB              47     210/ 25/ 31   N/A
BURNHAM HARBOR             48     190/ 17/ 17   N/A
CALUMET HARBOR             47     190/ 14/ 22 1013.9F
MICHIGAN CITY              47     180/ 18/ 22   N/A
$$

ILZ025>027-034>036-040-047-049-050-058-095>099-271800-
WEST-CENTRAL ILLINOIS

CITY           SKY/WX    TMP DP  RH WIND       PRES   REMARKS
QUINCY         CLOUDY    38  30  73 W12G21    30.17R WCI  30
GALESBURG*     CLOUDY    37  31  79 W20G25    30.11S WCI  26
MACOMB*        CLOUDY    37  33  82 W16       30.15F WCI  28
JACKSONVILLE*  CLOUDY    42  33  71 W17       30.15F
PITTSFIELD*    CLOUDY    40  31  70 W13G20    30.17S
$$

ILZ028>032-037-038-041>044-048-051>054-059>061-271800-
CENTRAL ILLINOIS

CITY           SKY/WX    TMP DP  RH WIND       PRES   REMARKS
PONTIAC        CLOUDY    45  43  93 W29G35    30.09R
BLOOMINGTON    CLOUDY    42  41  97 W17G25    30.10R FOG
DECATUR        CLOUDY    49  47  93 W12       30.11S
PEORIA         CLOUDY    40  32  73 W17       30.11R
LACON*         CLOUDY    38  31  76 W9G21     30.07F WCI  31
LINCOLN*       CLOUDY    44  41  88 W8G16     30.11F
SPRINGFIELD    CLOUDY    42  37  82 W17       30.13S
TAYLORVILLE    CLOUDY    43  41  93 W14G22    30.13S FOG
$$

ILZ033-039-045-046-055>057-062-063-271800-
EAST-CENTRAL ILLINOIS

CITY           SKY/WX    TMP DP  RH WIND       PRES   REMARKS
CHAMPAIGN      FOG       48  46  93 SW15      30.09F VSB 1
DANVILLE*      CLOUDY    46  45  99 SW15G21   30.07F FOG
RANTOUL*       CLOUDY    49  48  95 SW15      30.09R
MATTOON        FOG       46  46 100 S8        30.11F VSB 3/4
PARIS*         CLOUDY    46  46 100 SW14      30.12F FOG
$$

ILZ079-100>102-271800-
SOUTHWEST ILLINOIS

CITY           SKY/WX    TMP DP  RH WIND       PRES   REMARKS
ALTON          CLOUDY    43  39  87 W13       30.16S
BELLEVILLE     LGT RAIN  45  45 100 NW13G23   30.16R
CAHOKIA*       CLOUDY    45  40  82 NW16      30.17R
SPARTA*        CLOUDY    47  47  97 S5        30.16S
$$

ILZ064>066-069>071-074>076-080>082-084>086-088>090-092>094-271800-
SOUTH-CENTRAL ILLINOIS

CITY           SKY/WX    TMP DP  RH WIND       PRES   REMARKS
CARBONDALE     CLOUDY    50  47  89 SW7       30.16R
CAIRO*         CLOUDY   N/A N/A N/A SE5       30.16S FOG
EFFINGHAM*     CLOUDY    48  46  90 S6        30.13F FOG
MARION         LGT RAIN  50  48  93 SW8       30.16S
MT. VERNON     CLOUDY    50  45  81 SW10      30.15S
CENTRALIA*     CLOUDY    49  46  89 SW9       30.13S
SALEM*         CLOUDY    52  49  90 SW8       30.14R
METROPOLIS*    CLOUDY    49  49 100 SE3       30.15F FOG
$$

ILZ067-068-072-073-078-083-087-091-271800-
SOUTHEAST ILLINOIS

CITY           SKY/WX    TMP DP  RH WIND       PRES   REMARKS
LAWRENCEVILLE  CLOUDY    48  47  96 S13       30.14F FOG
FLORA*         CLOUDY    49  48  97 SW8       30.12F FOG
FAIRFIELD*     CLOUDY    49  48  97 S7        30.12F FOG
HARRISBURG*    CLOUDY    50  50 100 S8        30.15F
ROBINSON*      CLOUDY    47  46  97 S10       30.14F FOG
CARMI*         CLOUDY    50  50 100 S9        30.13F
$$

ABBREVIATIONS USED IN REMARKS
   TC - TEMPERATURE IN CELSIUS
  WCI - WIND CHILL INDEX
   HX - HEAT INDEX
  VSB - VISIBILITY
$$



USA.gov is the U.S. government's official web portal to all federal, state and local government web resources and services.